Time,TemperatureF,DewpointF,PressureIn,WindDirection,WindDirectionDegrees,WindSpeedMPH,WindSpeedGustMPH,Humidity,HourlyPrecipIn,Conditions,Clouds,dailyrainin,SoftwareType,DateUTC
2013-12-24 00:12:00,13.0,7.0,30.42,North,0,4.0,4.0,77,0.00,,,0.00,,2013-12-24 05:12:00,
2013-12-24 00:22:00,13.0,7.0,30.42,North,0,4.0,4.0,77,0.00,,,0.00,,2013-12-24 05:22:00,
2013-12-24 00:33:00,13.0,7.0,30.42,North,0,4.0,4.0,77,0.00,,,0.00,,2013-12-24 05:33:00,
2013-12-24 00:42:00,13.0,7.0,30.42,North,0,4.0,4.0,77,0.00,,,0.00,,2013-12-24 05:42:00,
2013-12-24 00:53:00,11.0,6.0,30.42,WNW,294,8.0,8.0,78,0.00,,,0.00,,2013-12-24 05:53:00,
2013-12-24 01:22:00,11.0,5.0,30.42,West,270,5.0,7.0,77,0.00,,,0.00,,2013-12-24 06:22:00,
2013-12-24 01:33:00,11.0,5.0,30.42,West,270,5.0,7.0,77,0.00,,,0.00,,2013-12-24 06:33:00,
2013-12-24 01:42:00,11.0,5.0,30.42,West,270,5.0,7.0,77,0.00,,,0.00,,2013-12-24 06:42:00,
2013-12-24 01:52:00,8.0,3.0,30.42,North,-999,-999.0,-999.0,78,0.00,,,0.00,,2013-12-24 06:52:00,
2013-12-24 02:22:00,8.0,3.0,30.42,West,270,5.0,5.0,78,0.00,,,0.00,,2013-12-24 07:22:00,
2013-12-24 02:52:00,7.0,2.0,30.43,WNW,292,2.0,3.0,78,0.00,,,0.00,,2013-12-24 07:52:00,
2013-12-24 03:11:00,7.0,2.0,30.44,North,-999,-999.0,-999.0,78,0.00,,,0.00,,2013-12-24 08:11:00,
2013-12-24 03:22:00,7.0,2.0,30.44,North,-999,-999.0,-999.0,78,0.00,,,0.00,,2013-12-24 08:22:00,
2013-12-24 03:32:00,7.0,2.0,30.44,North,-999,-999.0,-999.0,78,0.00,,,0.00,,2013-12-24 08:32:00,
2013-12-24 05:23:00,5.0,0.0,30.46,WNW,292,2.0,4.0,78,0.00,,,0.00,,2013-12-24 10:23:00,
2013-12-24 05:53:00,4.0,-1.0,30.46,SSE,157,30.0,30.0,78,0.00,,,0.00,,2013-12-24 10:53:00,
2013-12-24 06:22:00,4.0,-1.0,30.47,North,-999,-999.0,-999.0,79,0.00,,,0.00,,2013-12-24 11:22:00,
2013-12-24 06:33:00,4.0,-1.0,30.47,North,-999,-999.0,-999.0,79,0.00,,,0.00,,2013-12-24 11:33:00,
2013-12-24 06:42:00,4.0,-1.0,30.47,North,-999,-999.0,-999.0,79,0.00,,,0.00,,2013-12-24 11:42:00,
2013-12-24 06:53:00,4.0,-1.0,30.47,North,-999,-999.0,-999.0,79,0.00,,,0.00,,2013-12-24 11:53:00,
2013-12-24 07:02:00,4.0,-1.0,30.47,North,-999,-999.0,-999.0,79,0.00,,,0.00,,2013-12-24 12:02:00,
2013-12-24 08:52:00,3.0,-2.0,30.49,West,270,0.0,0.0,79,0.00,,,0.00,,2013-12-24 13:52:00,
2013-12-24 09:11:00,3.0,-2.0,30.49,North,-999,-999.0,-999.0,79,0.00,,,0.00,,2013-12-24 14:11:00,
2013-12-24 09:22:00,3.0,-2.0,30.49,North,-999,-999.0,-999.0,79,0.00,,,0.00,,2013-12-24 14:22:00,
2013-12-24 09:32:00,4.0,-1.0,30.53,North,-999,-999.0,-999.0,80,0.00,,,0.00,,2013-12-24 14:32:00,
2013-12-24 09:52:00,4.0,-1.0,30.53,North,-999,-999.0,-999.0,80,0.00,,,0.00,,2013-12-24 14:52:00,
2013-12-24 10:03:00,4.0,-1.0,30.53,North,-999,-999.0,-999.0,80,0.00,,,0.00,,2013-12-24 15:03:00,
2013-12-24 10:11:00,4.0,-1.0,30.53,North,-999,-999.0,-999.0,80,0.00,,,0.00,,2013-12-24 15:11:00,
2013-12-24 10:22:00,4.0,-1.0,30.53,North,-999,-999.0,-999.0,80,0.00,,,0.00,,2013-12-24 15:22:00,
2013-12-24 10:54:00,9.0,4.0,30.53,North,0,0.0,0.0,78,0.00,,,0.00,,2013-12-24 15:54:00,
2013-12-24 11:23:00,9.0,4.0,30.55,North,0,0.0,0.0,78,0.00,,,0.00,,2013-12-24 16:23:00,
2013-12-24 11:33:00,9.0,4.0,30.55,North,0,0.0,0.0,78,0.00,,,0.00,,2013-12-24 16:33:00,
2013-12-24 11:53:00,9.0,4.0,30.55,North,0,0.0,0.0,78,0.00,,,0.00,,2013-12-24 16:53:00,
2013-12-24 13:12:00,8.0,2.0,30.54,WNW,292,1.0,1.0,76,0.00,,,0.00,,2013-12-24 18:12:00,
2013-12-24 13:22:00,8.0,2.0,30.54,WNW,292,1.0,1.0,76,0.00,,,0.00,,2013-12-24 18:22:00,
2013-12-24 13:32:00,8.0,2.0,30.54,WNW,292,1.0,1.0,76,0.00,,,0.00,,2013-12-24 18:32:00,
2013-12-24 13:52:00,9.0,3.0,30.53,North,-999,-999.0,-999.0,76,0.00,,,0.00,,2013-12-24 18:52:00,
2013-12-24 14:12:00,9.0,3.0,30.53,North,-999,-999.0,-999.0,76,0.00,,,0.00,,2013-12-24 19:12:00,
2013-12-24 14:22:00,9.0,3.0,30.53,North,-999,-999.0,-999.0,76,0.00,,,0.00,,2013-12-24 19:22:00,
2013-12-24 14:32:00,9.0,3.0,30.53,North,-999,-999.0,-999.0,76,0.00,,,0.00,,2013-12-24 19:32:00,
2013-12-24 15:42:00,13.0,7.0,30.51,WNW,292,0.0,0.0,75,0.00,,,0.00,,2013-12-24 20:42:00,
2013-12-24 15:52:00,13.0,7.0,30.51,WNW,292,0.0,0.0,75,0.00,,,0.00,,2013-12-24 20:52:00,
2013-12-24 16:02:00,13.0,7.0,30.51,WNW,292,0.0,0.0,75,0.00,,,0.00,,2013-12-24 21:02:00,
2013-12-24 16:11:00,13.0,7.0,30.51,WNW,292,0.0,0.0,75,0.00,,,0.00,,2013-12-24 21:11:00,
2013-12-24 16:22:00,13.0,7.0,30.51,WNW,292,0.0,0.0,75,0.00,,,0.00,,2013-12-24 21:22:00,
2013-12-24 16:33:00,13.0,7.0,30.51,WNW,292,0.0,0.0,75,0.00,,,0.00,,2013-12-24 21:33:00,
2013-12-24 19:42:00,14.0,8.0,30.50,WSW,247,0.0,0.0,77,0.00,,,0.00,,2013-12-25 00:42:00,
2013-12-24 19:52:00,14.0,8.0,30.50,WSW,247,0.0,0.0,77,0.00,,,0.00,,2013-12-25 00:52:00,
2013-12-24 20:22:00,13.0,7.0,30.50,North,-999,-999.0,-999.0,78,0.00,,,0.00,,2013-12-25 01:22:00,
2013-12-24 20:32:00,13.0,7.0,30.50,North,-999,-999.0,-999.0,78,0.00,,,0.00,,2013-12-25 01:32:00,
2013-12-24 20:52:00,13.0,8.0,30.51,WSW,247,0.0,0.0,79,0.00,,,0.00,,2013-12-25 01:52:00,
2013-12-24 21:22:00,13.0,8.0,30.51,WSW,247,0.0,0.0,80,0.00,,,0.00,,2013-12-25 02:22:00,
2013-12-24 21:42:00,13.0,8.0,30.50,North,-999,-999.0,-999.0,80,0.00,,,0.00,,2013-12-25 02:42:00,
2013-12-24 21:53:00,13.0,8.0,30.50,North,-999,-999.0,-999.0,80,0.00,,,0.00,,2013-12-25 02:53:00,
2013-12-24 22:02:00,13.0,8.0,30.50,North,-999,-999.0,-999.0,80,0.00,,,0.00,,2013-12-25 03:02:00,